Date,TemperatureHighF,TemperatureAvgF,TemperatureLowF,DewpointHighF,DewpointAvgF,DewpointLowF,HumidityHigh,HumidityAvg,HumidityLow,PressureMaxIn,PressureMinIn,WindSpeedMaxMPH,WindSpeedAvgMPH,GustSpeedMaxMPH,PrecipitationSumIn
2014-1-1,24.6,15.9,6.8,12.0,8.1,4.0,88,72,53,30.44,30.23,4,0,0,0.00
2014-1-2,15.3,9.5,0.7,13.0,6.4,-3.0,90,87,84,30.42,29.94,0,0,0,0.31
2014-1-3,12.4,3.4,-7.9,9.0,-0.6,-12.0,90,83,77,30.46,29.83,1,0,0,0.04
2014-1-4,24.4,7.3,-13.6,10.0,-3.1,-18.0,88,65,36,30.54,30.31,4,0,0,0.00
2014-1-5,38.6,26.1,8.7,31.0,18.0,5.0,96,73,42,30.37,30.00,3,0,0,0.01
2014-1-6,52.3,33.6,23.5,52.0,31.8,17.0,98,93,73,29.99,29.32,3,0,0,0.43
2014-1-7,23.3,9.8,3.6,15.0,-2.7,-10.0,71,57,47,30.25,29.54,11,1,0,0.00
2014-1-8,20.2,10.1,-1.2,6.0,-0.4,-8.0,81,63,49,30.51,30.25,4,0,0,0.00
2014-1-9,27.5,13.6,2.8,13.0,5.7,0.0,87,72,50,30.70,30.47,3,0,0,0.00
2014-1-10,34.6,22.2,1.2,32.0,19.6,-2.0,94,90,86,30.65,30.32,3,0,0,0.01
2014-1-11,54.1,41.1,31.6,54.0,40.5,30.0,99,97,94,30.31,29.30,6,0,0,0.45
2014-1-12,49.1,38.4,31.5,49.0,32.3,27.0,98,79,66,30.00,29.31,4,0,0,0.03
2014-1-13,50.8,37.9,25.1,37.0,29.4,23.0,93,73,45,30.15,29.91,14,1,0,0.00
2014-1-14,45.9,40.6,35.6,43.0,38.4,34.0,98,92,74,29.90,29.67,3,0,0,0.63
2014-1-15,45.1,34.8,27.7,37.0,32.1,27.0,98,90,68,30.05,29.79,2,0,0,0.01
2014-1-16,36.6,31.9,27.5,36.0,30.9,27.0,97,96,94,29.97,29.90,0,0,0,0.00
2014-1-17,41.9,32.8,26.0,33.0,27.7,23.0,98,83,48,30.02,29.94,5,0,0,0.01
2014-1-18,33.3,30.0,26.7,32.0,28.6,25.0,96,94,91,29.95,29.68,0,0,0,0.28
2014-1-19,33.2,28.9,26.6,31.0,25.1,21.0,95,86,76,29.77,29.57,6,0,0,0.02
2014-1-20,39.6,31.1,19.7,30.0,23.6,11.0,90,74,61,29.93,29.52,6,0,0,0.00
2014-1-21,19.3,12.6,8.6,11.0,2.1,-3.0,84,63,47,30.11,29.93,1,0,0,0.00
2014-1-22,18.6,9.2,2.8,4.0,-1.9,-6.0,83,61,43,29.95,29.73,2,0,0,0.00
2014-1-23,20.4,8.5,0.0,3.0,-3.1,-8.0,82,60,40,30.20,29.95,2,0,0,0.00
2014-1-24,16.9,8.8,1.3,0.0,-3.2,-8.0,80,60,39,30.32,30.07,3,0,0,0.00
2014-1-25,33.2,22.4,11.0,25.0,13.0,-2.0,89,68,50,30.07,29.38,10,1,0,0.00
2014-1-26,21.1,16.3,10.0,16.0,3.1,-4.0,84,57,40,29.91,29.38,9,0,0,0.00
2014-1-27,40.8,23.3,15.9,36.0,14.6,3.0,93,70,48,30.04,29.56,4,0,0,0.04
2014-1-28,18.6,12.8,6.7,3.0,-3.4,-9.0,62,49,37,30.35,30.05,3,0,0,0.00
2014-1-29,23.3,16.4,10.5,4.0,-0.4,-4.0,71,49,32,30.28,30.02,3,0,0,0.00
2014-1-30,28.2,16.8,4.9,9.0,4.3,-3.0,78,59,41,30.48,30.23,4,0,0,0.00
2014-1-31,39.8,28.5,12.8,24.0,17.1,7.0,90,64,41,30.24,30.06,3,0,0,0.00
2014-2-1,44.7,34.1,23.2,29.0,24.1,19.0,87,68,45,30.38,30.07,4,0,0,0.00
2014-2-2,49.2,36.6,28.4,40.0,33.5,26.0,96,89,63,30.11,29.89,4,0,0,0.04
2014-2-3,32.4,28.8,19.7,31.0,25.6,16.0,96,87,68,30.34,30.11,0,0,0,0.14
2014-2-4,34.5,23.7,10.6,28.0,19.0,9.0,97,83,59,30.51,30.34,1,0,0,0.00
2014-2-5,26.2,24.3,22.5,24.0,22.2,20.0,94,91,84,30.34,29.71,0,0,0,0.96
2014-2-6,27.9,17.5,6.2,22.0,12.5,4.0,92,81,55,30.32,30.00,2,0,0,0.00
2014-2-7,28.4,14.8,-2.1,17.0,7.7,-5.0,92,75,53,30.31,30.20,3,0,0,0.00
2014-2-8,30.0,18.8,2.9,14.0,6.8,-3.0,83,61,38,30.34,30.18,3,0,0,0.00
2014-2-9,28.8,22.7,14.7,22.0,14.9,8.0,92,73,54,30.23,29.99,3,0,0,0.00
2014-2-10,26.2,16.2,1.0,20.0,10.4,-2.0,92,79,55,30.26,29.95,2,0,0,0.10
2014-2-11,24.2,8.1,-6.6,9.0,-0.1,-10.0,89,71,45,30.51,30.27,2,0,0,0.00
2014-2-12,28.6,10.2,-8.2,5.0,-2.6,-12.0,89,61,29,30.62,30.47,2,0,0,0.00
2014-2-13,31.5,23.4,7.8,31.0,20.5,1.0,97,89,71,30.46,29.10,1,0,0,0.93
2014-2-14,32.2,29.3,25.3,32.0,26.8,22.0,97,90,80,29.77,28.91,5,0,0,0.47
2014-2-15,31.8,26.8,21.3,28.0,24.7,19.0,95,91,79,29.89,29.56,2,0,0,0.18
2014-2-16,29.8,22.5,16.5,26.0,16.7,11.0,96,79,59,30.02,29.57,5,0,0,0.00
2014-2-17,27.1,15.4,2.8,12.0,5.1,-4.0,78,65,42,30.41,30.04,3,0,0,0.00
2014-2-18,26.0,13.5,-1.0,24.0,9.9,-6.0,94,85,75,30.42,30.00,0,0,0,0.43
2014-2-19,31.2,25.4,14.7,30.0,22.7,12.0,94,89,77,30.14,29.80,1,0,0,0.16
2014-2-20,45.8,34.2,23.4,34.0,28.4,22.0,97,81,49,30.27,29.89,4,0,0,0.15
2014-2-21,36.1,33.0,29.8,35.0,32.3,29.0,97,97,95,30.19,29.73,1,0,0,0.50
2014-2-22,49.7,37.4,24.9,34.0,27.3,24.0,98,71,38,29.99,29.87,13,1,0,0.01
2014-2-23,47.1,38.2,31.5,30.0,27.1,24.0,89,66,46,30.02,29.81,6,0,0,0.00
2014-2-24,34.1,28.2,19.0,29.0,17.0,9.0,89,64,48,29.99,29.79,6,0,0,0.00
2014-2-25,27.0,19.7,10.9,12.0,8.8,5.0,77,63,47,30.02,29.93,3,0,0,0.00
2014-2-26,28.5,14.7,4.4,13.0,3.7,-5.0,87,64,39,29.98,29.81,4,0,0,0.00
2014-2-27,26.6,14.0,1.5,13.0,1.9,-6.0,82,60,38,29.96,29.63,8,1,0,0.00
2014-2-28,23.9,11.6,0.9,2.0,-4.2,-9.0,66,50,31,30.50,29.97,3,0,0,0.00
2014-3-1,32.5,17.6,-4.1,18.0,4.1,-9.0,80,58,36,30.50,30.12,7,1,0,0.00
2014-3-2,39.4,31.9,26.8,26.0,21.8,17.0,81,67,52,30.12,30.00,3,0,0,0.00
2014-3-3,26.2,17.2,1.8,17.0,5.6,-4.0,75,61,48,30.35,30.04,1,0,0,0.00
2014-3-4,28.7,14.5,-5.6,12.0,0.5,-9.0,89,58,32,30.44,30.30,4,0,0,0.00
2014-3-5,24.7,19.7,10.5,18.0,14.2,6.0,89,79,65,30.55,30.30,2,0,0,0.01
2014-3-6,29.4,14.4,-1.4,6.0,-2.3,-7.0,81,53,22,30.70,30.57,4,0,0,0.00
2014-3-7,37.2,19.4,-4.9,20.0,8.2,-9.0,89,65,40,30.56,30.01,6,0,0,0.00
2014-3-8,51.7,33.0,15.1,31.0,23.4,13.0,91,70,41,30.00,29.75,2,0,0,0.00
2014-3-9,38.6,30.6,22.1,23.0,16.6,11.0,78,58,37,29.98,29.91,3,0,0,0.00
2014-3-10,42.0,33.1,26.3,28.0,22.9,13.0,85,67,51,29.93,29.66,2,0,0,0.00
2014-3-11,52.7,39.9,27.4,35.0,29.8,25.0,94,70,42,29.75,29.53,4,0,0,0.00
2014-3-12,41.3,35.3,32.4,35.0,32.1,28.0,97,88,76,29.77,29.09,1,0,0,0.65
2014-3-13,33.5,19.2,12.2,33.0,13.5,3.0,97,79,60,30.00,29.07,4,0,0,0.00
2014-3-14,36.2,23.6,8.3,22.0,10.3,0.0,76,58,39,30.22,29.94,10,1,0,0.03
2014-3-15,53.7,40.5,31.9,37.0,30.2,22.0,95,68,45,29.93,29.70,6,1,0,0.06
2014-3-16,32.9,27.4,18.7,23.0,12.2,4.0,74,54,36,30.24,29.94,4,0,0,0.00
2014-3-17,31.9,20.4,13.0,9.0,2.2,-2.0,65,46,29,30.25,30.09,1,0,0,0.00
2014-3-18,37.9,22.2,6.0,16.0,8.0,2.0,86,58,26,30.41,30.22,3,0,0,0.00
2014-3-19,41.0,28.9,14.4,30.0,21.8,12.0,94,76,52,30.44,30.04,5,0,0,0.00
2014-3-20,47.7,37.5,31.4,40.0,32.3,27.0,98,82,58,30.06,29.66,5,0,0,0.66
2014-3-21,40.7,34.4,27.7,27.0,24.4,21.0,77,67,54,30.07,29.78,8,1,0,0.00
2014-3-22,50.9,34.1,22.9,39.0,25.2,19.0,88,71,49,30.10,29.69,6,1,0,0.02
2014-3-23,40.1,32.1,21.9,26.0,19.1,6.0,84,60,41,30.13,29.96,2,0,0,0.00
2014-3-24,30.8,21.4,10.8,10.0,4.7,-1.0,68,50,34,30.22,30.10,3,0,0,0.00
2014-3-25,34.8,25.2,11.0,18.0,11.3,6.0,84,57,39,30.19,29.99,4,0,0,0.00
2014-3-26,33.7,27.5,20.6,20.0,14.1,4.0,75,58,41,30.08,29.69,5,1,0,0.00
2014-3-27,40.7,28.8,15.6,23.0,8.7,1.0,69,44,27,30.38,30.09,3,0,0,0.00
2014-3-28,49.9,42.1,34.0,47.0,33.7,15.0,94,73,43,30.27,29.97,7,1,0,0.05
2014-3-29,51.8,41.6,35.6,42.0,37.7,34.0,96,87,65,30.29,30.04,4,0,0,0.73
2014-3-30,37.7,36.0,34.3,37.0,35.4,34.0,98,97,96,30.04,29.70,2,0,0,1.70
2014-3-31,38.2,34.4,31.9,37.0,32.8,30.0,98,94,84,30.08,29.77,2,0,0,0.87
2014-4-1,54.8,40.3,27.5,38.0,31.4,26.0,96,73,44,30.15,30.05,3,0,0,0.01
2014-4-2,56.8,40.0,26.2,38.0,31.4,25.0,96,74,47,30.16,30.04,3,0,0,0.00
2014-4-3,54.8,40.7,28.0,32.0,27.7,24.0,92,63,37,30.18,30.08,2,0,0,0.00
2014-4-4,49.2,38.0,28.4,35.0,28.8,24.0,95,71,47,30.21,29.95,9,1,0,0.26
2014-4-5,48.4,38.9,32.0,44.0,33.2,25.0,98,81,55,29.98,29.75,4,0,0,0.17
2014-4-6,56.4,40.6,28.0,28.0,25.5,21.0,86,59,26,30.22,29.98,4,0,0,0.00
2014-4-7,59.0,43.2,27.1,39.0,27.3,19.0,93,60,29,30.27,29.95,6,1,0,0.05
2014-4-8,63.5,48.2,39.4,57.0,43.9,33.0,98,86,58,29.95,29.32,4,0,0,0.58
2014-4-9,57.3,43.0,30.5,40.0,29.5,18.0,95,63,29,30.00,29.55,5,0,0,0.00
2014-4-10,62.6,43.7,23.6,33.0,24.0,16.0,89,51,21,30.18,30.01,19,1,0,0.00
2014-4-11,72.2,55.7,45.8,53.0,42.9,33.0,95,65,41,30.05,29.93,10,1,0,0.09
2014-4-12,68.8,52.5,36.0,51.0,39.2,34.0,98,67,30,30.23,30.01,13,0,0,0.10
2014-4-13,58.9,45.4,37.2,48.0,40.6,34.0,96,84,63,30.29,30.06,3,0,0,0.03
2014-4-14,77.3,57.9,36.0,60.0,48.0,35.0,97,73,46,30.07,29.86,17,3,0,0.00
2014-4-15,64.0,59.1,38.6,60.0,56.2,37.0,95,90,77,29.90,29.54,10,2,0,0.74
2014-4-16,42.4,33.5,25.4,36.0,26.4,20.0,96,77,49,30.66,29.78,3,0,0,0.27
2014-4-17,45.0,32.2,20.3,26.0,22.2,18.0,91,69,41,30.86,30.67,3,0,0,0.00
2014-4-18,47.3,34.4,21.2,33.0,27.6,20.0,96,78,53,30.71,30.29,4,0,0,0.00
2014-4-19,63.0,44.6,27.3,41.0,32.1,26.0,96,66,36,30.46,30.22,2,0,0,0.00
2014-4-20,58.0,42.5,25.4,28.0,24.5,20.0,91,55,26,30.56,30.37,5,0,0,0.00
2014-4-21,72.2,51.5,28.8,33.0,26.3,18.0,91,47,15,30.37,29.86,10,1,0,0.00
2014-4-22,77.3,60.5,45.2,52.0,41.8,32.0,93,54,29,29.85,29.49,10,1,0,0.03
2014-4-23,53.2,49.2,43.5,51.0,44.0,33.0,96,83,66,29.68,29.45,4,0,0,0.23
2014-4-24,58.5,45.3,37.3,34.0,27.6,22.0,69,52,32,29.77,29.67,6,1,0,0.00
2014-7-2,71.1,70.1,68.6,70.0,68.9,68.0,97,96,94,29.94,29.89,4,1,0,0.32
2014-7-3,88.2,74.9,67.4,77.0,71.4,67.0,99,89,67,30.03,29.89,3,0,0,0.11
2014-7-4,71.2,66.7,61.0,70.0,65.9,61.0,98,97,91,30.02,29.84,1,0,0,0.80
2014-7-5,79.3,66.7,54.7,60.0,56.1,53.0,98,72,45,30.04,29.84,3,0,0,0.06
2014-7-6,82.9,71.2,56.5,63.0,56.7,50.0,81,62,42,30.03,29.88,9,1,0,0.00
2014-7-7,85.4,73.6,67.3,72.0,66.3,60.0,97,79,60,29.88,29.70,6,0,0,0.49
2014-7-8,86.9,77.3,67.4,74.0,70.3,66.0,98,80,61,29.80,29.66,8,1,0,0.12
2014-7-9,85.1,76.6,65.8,70.0,66.8,63.0,95,73,51,29.96,29.66,5,1,0,0.37
2014-7-10,79.8,68.6,59.0,68.0,61.9,57.0,99,81,52,30.18,29.95,2,0,0,0.00
2014-7-11,81.4,67.0,55.3,63.0,58.1,54.0,97,76,44,30.27,30.18,2,0,0,0.00
2014-7-12,86.0,70.3,51.8,70.0,60.6,51.0,98,75,45,30.25,30.12,3,0,0,0.00
2014-7-13,83.5,74.9,67.0,71.0,65.5,58.0,94,73,60,30.13,29.89,6,2,0,0.02
2014-7-14,86.3,76.6,69.5,74.0,70.2,68.0,97,82,58,29.92,29.85,6,0,0,0.02
2014-7-15,84.2,75.3,71.9,75.0,72.6,71.0,98,92,70,29.87,29.76,5,0,0,0.38
2014-7-16,74.8,70.6,61.6,73.0,69.4,61.0,98,96,86,29.88,29.76,0,0,0,0.37
2014-7-17,81.6,67.7,57.6,66.0,60.4,56.0,100,80,49,30.10,29.88,3,0,0,0.00
2014-7-18,81.3,66.0,52.8,66.0,58.6,52.0,99,80,44,30.26,30.10,0,0,0,0.00
2014-7-19,76.3,65.1,53.3,68.0,61.0,52.0,100,87,61,30.31,30.24,0,0,0,0.00
2014-7-20,79.9,66.4,56.6,63.0,58.1,53.0,98,78,40,30.25,30.16,3,0,0,0.00
2014-7-21,83.5,67.0,51.4,66.0,58.3,50.0,98,77,45,30.24,30.15,2,0,0,0.00
2014-7-22,90.0,74.0,56.6,73.0,65.2,56.0,98,76,51,30.18,30.00,3,0,0,0.00
2014-7-23,90.1,78.7,69.7,76.0,70.8,67.0,97,78,58,29.99,29.74,8,1,0,0.38
2014-7-24,80.7,70.7,57.9,71.0,65.5,56.0,98,85,59,29.94,29.77,2,0,0,0.03
2014-7-25,81.6,65.8,49.3,66.0,58.5,48.0,99,80,52,30.02,29.94,3,0,0,0.00
2014-7-26,83.6,69.6,55.7,65.0,59.9,55.0,98,74,46,30.00,29.88,5,1,0,0.00
2014-7-27,77.3,70.0,62.6,72.0,67.2,61.0,97,91,78,29.91,29.67,4,0,0,0.20
2014-7-28,81.6,69.2,62.3,73.0,66.8,62.0,99,92,71,29.70,29.45,4,0,0,0.81
2014-7-29,77.1,65.9,56.7,64.0,60.1,56.0,99,83,55,29.97,29.57,3,0,0,0.01
2014-7-30,71.3,60.0,55.1,61.0,56.8,54.0,96,89,65,30.07,29.97,0,0,0,0.00
2014-7-31,79.5,65.8,50.1,65.0,58.4,49.0,99,79,55,30.18,30.07,5,0,0,0.00
2014-8-1,84.6,69.2,56.1,71.0,63.4,55.0,99,83,54,30.24,30.18,3,0,0,0.01
2014-8-2,73.4,66.6,56.5,68.0,62.3,55.0,98,87,67,30.25,30.16,4,0,0,0.00
2014-8-3,73.5,63.6,53.7,66.0,59.7,53.0,98,88,70,30.18,30.07,2,0,0,0.00
2014-8-4,85.5,69.7,57.7,73.0,65.1,57.0,99,87,52,30.08,30.01,2,0,0,0.15
2014-8-5,87.1,72.6,60.0,74.0,65.1,60.0,99,80,47,30.05,29.92,3,0,0,0.03
2014-8-6,82.8,70.6,58.4,69.0,62.8,55.0,98,79,46,29.92,29.81,2,0,0,0.00
2014-8-7,76.9,62.5,51.5,67.0,56.9,50.0,97,83,55,29.98,29.88,1,0,0,0.04
2014-8-8,82.3,66.1,52.6,64.0,57.4,51.0,97,76,41,30.07,29.97,3,0,0,0.00
2014-8-9,85.1,68.9,53.5,66.0,58.4,52.0,98,73,41,30.12,30.05,3,0,0,0.00
2014-8-10,85.6,69.2,53.6,67.0,58.3,52.0,98,73,38,30.16,30.11,2,0,0,0.00
2014-8-11,87.3,70.1,53.9,67.0,60.7,53.0,99,75,44,30.18,30.09,4,0,0,0.00
2014-8-12,78.9,68.9,57.8,66.0,60.9,57.0,98,77,55,30.14,30.03,5,0,0,0.00
2014-8-13,69.3,65.2,59.1,65.0,63.7,59.0,98,95,83,30.03,29.64,7,1,0,2.55
2014-8-14,73.4,61.9,50.3,61.0,56.0,49.0,99,83,56,29.90,29.70,3,0,0,0.01
2014-8-15,70.8,60.2,50.3,60.0,54.6,49.0,98,83,59,29.96,29.86,3,0,0,0.00
2014-8-16,75.3,68.0,58.6,60.0,56.5,53.0,89,68,50,30.00,29.93,6,0,0,0.00
2014-8-17,78.5,64.5,53.6,66.0,58.5,52.0,98,82,59,29.93,29.80,3,0,0,0.01
2014-8-18,70.9,56.2,50.8,58.0,52.5,49.0,98,88,60,29.93,29.83,1,0,0,0.00
2014-8-19,78.8,61.2,45.2,62.0,53.1,44.0,100,78,46,30.00,29.91,2,0,0,0.00
2014-8-20,82.5,64.4,47.2,65.0,55.9,46.0,98,77,43,30.10,30.00,2,0,0,0.00
2014-8-21,68.9,58.6,52.0,63.0,55.6,51.0,97,90,80,30.13,30.08,0,0,0,0.03
2014-8-22,66.5,61.8,58.3,65.0,61.1,57.0,98,97,94,30.15,30.11,1,0,0,0.47
2014-8-23,73.0,63.4,54.0,65.0,59.6,53.0,99,88,71,30.17,30.13,1,0,0,0.00
2014-8-24,81.6,64.9,50.0,67.0,58.8,49.0,99,83,52,30.20,30.13,2,0,0,0.00
2014-8-25,88.2,69.3,55.0,72.0,62.3,54.0,99,82,42,30.19,30.12,2,0,0,0.00
2014-8-26,86.8,69.9,54.8,73.0,63.4,54.0,99,82,50,30.18,30.05,4,0,0,0.00
2014-8-27,89.2,76.3,65.4,74.0,68.8,63.0,91,78,58,30.05,29.86,3,0,0,0.00
2014-8-28,79.0,67.2,56.1,68.0,58.9,51.0,98,77,51,30.03,29.83,3,0,0,0.00
2014-8-29,77.4,62.7,50.4,61.0,54.3,49.0,97,77,48,30.30,30.03,3,0,0,0.00
2014-8-30,76.3,62.9,46.8,62.0,55.9,46.0,100,80,51,30.33,30.14,10,1,0,0.00
2014-8-31,82.9,73.7,63.8,74.0,69.1,61.0,96,86,73,30.14,29.95,9,1,0,0.03
2014-9-1,88.4,76.2,67.5,73.0,70.1,66.0,98,83,55,30.00,29.92,3,0,0,0.00
2014-9-2,88.1,74.8,64.9,77.0,71.0,64.0,99,89,61,29.95,29.73,3,0,0,0.10
2014-9-3,82.6,70.7,60.4,73.0,64.4,58.0,98,82,51,30.11,29.72,3,0,0,0.14
2014-9-4,84.9,68.8,52.2,67.0,60.2,51.0,99,77,50,30.22,30.11,3,0,0,0.00
2014-9-5,86.8,75.3,61.3,73.0,67.6,60.0,97,78,60,30.17,29.98,11,1,0,0.00
2014-9-6,89.0,77.1,65.8,76.0,71.4,65.0,97,84,63,29.97,29.76,7,1,0,0.23
2014-9-7,77.1,65.2,51.5,65.0,58.5,50.0,99,82,45,30.25,29.94,2,0,0,0.08
2014-9-8,74.9,59.5,46.7,61.0,51.4,46.0,98,78,46,30.41,30.25,3,0,0,0.00
2014-9-9,68.6,57.2,45.6,59.0,50.7,45.0,98,81,51,30.41,30.25,4,0,0,0.00
2014-9-10,70.6,60.8,53.6,61.0,57.3,52.0,96,88,69,30.25,30.07,1,0,0,0.00
2014-9-11,73.1,65.7,56.6,68.0,62.8,56.0,98,90,83,30.07,29.80,9,1,0,0.00
2014-9-12,73.2,59.5,45.4,56.0,51.5,44.0,96,77,50,30.28,29.94,2,0,0,0.00
2014-9-13,61.6,53.7,43.0,56.0,50.6,42.0,97,90,73,30.34,30.15,1,0,0,0.25
2014-9-14,66.2,52.6,41.8,53.0,47.7,41.0,98,85,54,30.28,30.15,1,0,0,0.01
2014-9-15,64.7,49.4,35.0,51.0,44.1,34.0,98,84,52,30.30,30.14,2,0,0,0.00
2014-9-16,61.9,51.2,44.7,60.0,50.0,43.0,99,95,90,30.15,29.98,1,0,0,0.08
2014-9-17,69.9,53.7,41.6,59.0,47.8,41.0,99,83,49,30.06,29.98,2,0,0,0.00
2014-9-18,74.5,55.0,38.9,58.0,48.2,38.0,99,80,49,30.20,29.97,1,0,0,0.00
2014-9-19,59.6,45.9,33.2,43.0,36.6,32.0,97,74,37,30.47,30.20,3,0,0,0.00
2014-9-20,69.1,51.9,30.3,58.0,46.6,29.0,100,83,68,30.44,30.12,7,1,0,0.00
2014-9-21,77.9,65.1,50.7,72.0,63.1,49.0,100,93,79,30.12,29.58,3,0,0,0.85
2014-9-22,70.8,60.4,41.6,65.0,52.7,39.0,98,77,52,30.12,29.55,3,0,0,0.00
2014-9-23,70.0,51.5,35.3,53.0,44.7,34.0,98,80,49,30.48,30.12,4,0,0,0.00
2014-9-24,66.7,52.3,39.5,58.0,47.5,39.0,98,85,64,30.67,30.48,4,0,0,0.00
2014-9-25,61.2,50.3,40.4,54.0,47.2,39.0,98,89,72,30.60,30.30,0,0,0,0.00
2014-9-26,76.7,57.9,43.1,62.0,52.5,42.0,98,84,53,30.30,30.18,2,0,0,0.00
2014-9-27,83.6,63.1,48.4,66.0,57.5,48.0,99,84,49,30.22,30.15,3,0,0,0.00
2014-9-28,85.9,65.6,49.2,70.0,59.7,48.0,99,84,50,30.19,30.00,2,0,0,0.00
2014-9-29,78.6,61.3,52.3,66.0,57.3,52.0,98,88,59,30.07,29.96,2,0,0,0.00
2014-9-30,59.0,56.3,54.3,56.0,54.7,53.0,97,95,89,30.08,30.03,0,0,0,0.04
2014-10-1,57.0,56.0,55.3,57.0,55.5,55.0,98,98,97,30.17,30.07,0,0,0,0.42
2014-10-2,57.1,53.5,44.3,56.0,52.8,43.0,99,97,93,30.23,30.16,1,0,0,0.42
2014-10-3,65.4,51.4,39.2,56.0,47.5,39.0,99,88,62,30.20,29.95,2,0,0,0.00
2014-10-4,61.1,55.7,51.3,61.0,55.2,50.0,100,97,96,29.94,29.55,2,0,0,0.31
2014-10-5,61.0,49.9,36.1,55.0,44.5,35.0,98,84,50,29.98,29.59,4,0,0,0.01
2014-10-6,64.9,47.6,31.2,50.0,40.9,30.0,98,81,51,30.19,29.99,10,0,0,0.00
2014-10-7,72.0,56.9,39.8,62.0,51.6,39.0,99,84,59,30.18,30.00,14,1,0,0.00
2014-10-8,70.4,60.7,50.7,60.0,54.9,42.0,98,82,54,29.99,29.73,10,0,0,0.09
2014-10-9,63.4,49.9,37.0,44.0,40.0,35.0,96,72,43,30.03,29.90,5,0,0,0.00
2014-10-10,61.5,48.3,38.6,45.0,40.3,37.0,96,76,51,30.18,30.03,5,0,0,0.00
2014-10-11,52.1,43.0,36.6,49.0,41.7,36.0,97,95,85,30.18,30.10,2,0,0,0.25
2014-10-12,62.0,44.7,31.7,51.0,39.6,31.0,99,85,50,30.34,30.18,2,0,0,0.00
2014-10-13,60.3,46.5,29.1,54.0,43.3,28.0,98,89,75,30.40,30.28,5,0,0,0.00
2014-10-14,74.0,62.4,51.8,66.0,58.8,50.0,98,88,71,30.29,30.17,5,0,0,0.00
2014-10-15,77.7,67.7,57.4,69.0,64.1,56.0,99,89,70,30.17,29.98,7,0,0,0.00
2014-10-16,69.7,67.1,59.3,69.0,66.4,59.0,98,97,94,29.98,29.68,5,0,0,1.28
2014-10-17,70.3,60.5,53.6,62.0,56.0,53.0,99,86,58,29.70,29.62,6,0,0,0.01
2014-10-18,67.4,57.9,52.4,61.0,54.6,49.0,97,89,74,29.69,29.52,6,0,0,0.02
2014-10-19,54.6,48.3,37.2,49.0,39.5,28.0,88,72,55,30.01,29.63,2,0,0,0.00
2014-10-20,56.1,43.3,30.1,40.0,34.1,27.0,90,71,50,30.09,30.00,6,0,0,0.00
2014-10-21,59.5,49.3,40.1,54.0,46.7,39.0,99,90,81,30.06,29.95,1,0,0,0.00
2014-10-22,50.6,48.3,46.2,49.0,47.5,46.0,98,97,93,30.10,29.90,4,0,0,0.68
2014-10-23,50.1,47.8,45.9,50.0,47.6,45.0,99,99,98,29.91,29.70,3,0,0,3.25
2014-10-24,50.5,47.7,41.8,49.0,46.6,41.0,99,96,88,29.79,29.73,1,0,0,0.10
2014-10-25,64.3,50.0,37.0,50.0,44.3,36.0,99,83,53,29.80,29.53,3,0,0,0.00
2014-10-26,55.9,48.4,40.0,47.0,42.6,37.0,95,81,64,29.73,29.46,3,0,0,0.00
2014-10-27,61.4,48.5,38.5,45.0,40.9,36.0,92,77,52,30.06,29.73,2,0,0,0.00
2014-10-28,66.0,48.1,35.1,55.0,43.8,34.0,98,86,61,30.11,29.98,3,0,0,0.00
2014-10-29,68.8,51.8,44.1,61.0,49.5,43.0,99,92,71,29.98,29.81,1,0,0,0.08
2014-10-30,58.3,45.1,35.0,48.0,40.2,33.0,98,85,56,30.04,29.92,3,0,0,0.01
2014-10-31,51.9,43.6,36.9,41.0,38.7,36.0,96,84,64,30.10,30.02,1,0,0,0.00
2014-11-1,42.0,39.5,36.9,41.0,37.3,35.0,97,92,83,30.02,29.88,1,0,0,0.41
2014-11-2,39.4,37.1,35.0,36.0,29.4,19.0,97,75,52,29.91,29.72,3,0,0,0.01
2014-11-3,51.5,38.9,30.4,31.0,23.5,17.0,87,57,26,30.10,29.89,3,0,0,0.00
2014-11-4,60.3,45.7,30.3,42.0,35.8,28.0,91,72,39,30.18,30.02,5,0,0,0.00
2014-11-5,63.5,51.2,34.1,48.0,38.7,32.0,91,64,41,30.16,29.98,3,0,0,0.00
2014-11-6,44.5,41.1,33.9,44.0,39.5,32.0,98,94,85,30.15,29.56,0,0,0,0.43
2014-11-7,45.0,40.7,33.6,44.0,37.5,28.0,98,89,76,29.84,29.52,2,0,0,0.04
2014-11-8,45.8,37.6,27.6,31.0,27.7,23.0,88,69,44,30.00,29.85,2,0,0,0.00
2014-11-9,53.6,41.9,27.7,39.0,33.2,26.0,93,72,54,30.06,29.90,3,0,0,0.00
2014-11-10,56.9,39.0,26.2,39.0,31.7,25.0,97,78,44,30.24,30.06,3,0,0,0.00
2014-11-11,61.0,42.9,27.7,51.0,39.2,27.0,97,87,66,30.23,30.02,3,0,0,0.00
2014-11-12,64.2,50.7,34.1,56.0,46.2,31.0,96,85,69,30.05,29.86,4,0,0,0.00
2014-11-13,49.5,37.9,26.2,35.0,30.3,25.0,97,76,47,30.12,30.00,1,0,0,0.06
2014-11-14,42.8,33.2,25.4,37.0,28.2,21.0,97,83,50,30.14,29.95,1,0,0,0.09
2014-11-15,38.9,28.0,19.9,25.0,19.7,16.0,94,73,44,30.39,30.15,2,0,0,0.00
2014-11-16,40.8,31.0,18.4,27.0,22.6,16.0,92,73,54,30.42,30.16,3,0,0,0.00
2014-11-17,36.1,34.6,32.6,35.0,32.9,26.0,97,93,67,30.16,29.48,1,0,0,1.34
2014-11-18,36.3,29.4,21.8,36.0,20.3,7.0,98,71,46,29.96,29.52,4,0,0,0.00
2014-11-19,36.0,26.4,20.7,17.0,11.4,6.0,69,54,40,30.19,29.95,10,0,0,0.01
2014-11-20,43.3,32.3,24.7,26.0,19.0,12.0,79,59,42,30.09,29.80,7,1,0,0.00
2014-11-21,34.4,26.2,19.6,18.0,13.4,8.0,76,59,45,30.47,29.96,2,0,0,0.00
2014-11-22,39.3,30.5,17.9,23.0,14.4,9.0,80,54,34,30.48,30.10,7,0,0,0.00
2014-11-23,58.7,44.8,34.4,43.0,34.3,23.0,90,68,51,30.16,30.09,3,0,0,0.00
2014-11-24,64.6,51.4,34.2,62.0,48.8,32.0,99,91,83,30.10,29.57,4,1,0,0.68
2014-11-25,61.0,52.4,33.6,56.0,42.9,30.0,90,72,46,30.14,29.71,4,0,0,0.01
2014-11-26,37.2,33.7,31.9,35.0,31.9,30.0,97,93,88,30.24,29.77,0,0,0,1.47
2014-11-27,36.0,31.7,27.6,34.0,30.3,26.0,97,94,91,30.07,29.77,0,0,0,0.09
2014-11-28,34.3,26.7,18.6,30.0,24.5,17.0,96,91,81,30.27,30.05,1,0,0,0.05
2014-11-29,33.5,21.1,10.4,25.0,17.5,8.0,97,86,60,30.39,30.26,2,0,0,0.00
2014-11-30,49.3,37.5,23.1,40.0,33.8,22.0,97,87,68,30.30,30.05,4,0,0,0.00
2014-12-1,55.8,44.8,33.7,46.0,38.6,28.0,86,79,68,30.49,30.03,5,0,0,0.00
2014-12-2,33.3,30.5,27.8,30.0,24.5,19.0,95,79,61,30.76,30.46,1,0,0,0.00
2014-12-3,44.8,36.7,31.3,44.0,35.0,28.0,98,94,76,30.45,29.91,8,0,0,0.68
2014-12-4,40.2,30.9,20.6,28.0,24.4,19.0,92,78,57,30.61,30.14,4,0,0,0.00
2014-12-5,35.6,26.4,15.3,30.0,22.0,13.0,96,84,64,30.75,30.50,0,0,0,0.00
2014-12-6,34.6,32.8,31.0,34.0,32.1,30.0,97,97,95,30.50,30.20,0,0,0,1.29
2014-12-7,35.3,28.1,15.6,33.0,19.1,5.0,97,71,49,30.76,30.30,2,0,0,0.01
2014-12-8,23.4,18.0,11.6,21.0,11.1,4.0,92,74,64,30.85,30.60,1,0,0,0.00
2014-12-9,37.0,31.2,23.5,37.0,30.1,20.0,98,95,87,30.59,29.62,1,0,0,1.41
2014-12-10,36.6,35.4,34.1,36.0,35.1,34.0,98,98,98,29.64,29.48,0,0,0,0.38
2014-12-11,34.4,32.3,30.0,34.0,31.0,28.0,98,95,90,29.83,29.48,4,0,0,0.05
2014-12-12,37.5,32.2,27.7,32.0,28.8,26.0,92,87,79,29.94,29.83,2,0,0,0.01
2014-12-13,39.1,32.0,27.4,32.0,27.9,25.0,92,85,71,29.92,29.84,3,0,0,0.01
2014-12-14,43.0,30.9,24.8,33.0,27.4,23.0,96,87,68,29.96,29.83,1,0,0,0.00
2014-12-15,42.6,28.9,22.0,35.0,25.5,21.0,100,88,65,30.21,29.96,1,0,0,0.01
2014-12-16,34.4,29.2,21.1,32.0,27.8,20.0,96,94,87,30.21,29.98,0,0,0,0.08
2014-12-17,45.9,38.9,32.8,45.0,37.7,32.0,99,95,88,29.98,29.74,2,0,0,0.59
2014-12-18,40.9,36.3,33.3,35.0,31.9,29.0,94,84,72,29.91,29.75,3,0,0,0.01
2014-12-19,34.0,29.9,20.9,29.0,24.5,19.0,91,80,70,30.20,29.91,1,0,0,0.00
2014-12-20,36.0,27.1,18.0,27.0,22.4,17.0,97,83,66,30.37,30.21,1,0,0,0.00
2014-12-21,34.2,30.7,28.8,29.0,26.8,24.0,90,85,79,30.42,30.34,1,0,0,0.00
2014-12-22,37.7,33.3,30.0,33.0,30.5,28.0,96,90,78,30.45,30.34,0,0,0,0.03
2014-12-23,40.5,37.0,33.8,40.0,36.4,33.0,98,97,96,30.34,30.22,1,0,0,0.52
2014-12-24,39.5,37.9,36.4,39.0,37.4,36.0,98,98,98,30.22,29.60,0,0,0,0.57
2014-12-25,54.6,43.4,38.0,54.0,39.0,30.0,99,85,64,30.00,29.49,4,0,0,0.10
2014-12-26,47.8,37.8,30.5,36.0,31.3,28.0,94,78,60,30.20,30.00,3,0,0,0.00
2014-12-27,51.0,36.7,27.5,38.0,31.9,26.0,95,84,60,30.25,30.04,1,0,0,0.00
2014-12-28,48.9,43.2,33.8,45.0,36.7,29.0,94,78,65,30.04,29.79,4,0,0,0.05
2014-12-29,41.0,30.2,21.3,29.0,22.4,16.0,94,74,49,30.27,30.03,2,0,0,0.00
2014-12-30,29.8,19.9,11.5,15.0,7.6,-2.0,85,61,34,30.41,30.27,1,0,0,0.00
2014-12-31,28.8,16.0,6.2,15.0,7.3,3.0,86,70,46,30.37,30.16,1,0,0,0.00
2015-1-1,30.8,21.7,5.9,15.0,10.0,3.0,90,63,43,30.15,29.95,4,0,0,0.00
2015-1-2,36.6,30.2,24.2,23.0,18.0,14.0,74,61,54,30.50,29.97,2,0,0,0.00